[[{"header":{"parameterUnit":"m.s-1","parameterCategory":1,"la1":30.2991,"la2":30.254,"lo1":-89.0895,"lo2":-89.0444,"dy":0.0017,"dx":0.0017,"nx":28,"ny":28,"refTime":"2025-01-24T03:00:00:Z","depth":0,"parameterNumber":2,"parameterNumberName":"U-component_of_WINDS"},"data":[0,0,0,0,0,0,0,0,0,0,0,0,0,0,0,0,0,0,0,0,0,0,0,0,0,0,0,0,0,0,0,0,0,0,0,0,0,0,0,0,0,0,0,0,0,0,0,0,0,0,0,0,0,0,0,0,0,0,-3.8008,-3.8009,0,-3.81,-3.8101,-3.8102,-3.8013,-3.8009,-3.8006,-3.8002,-3.8099,-3.8105,-3.8111,0,0,0,0,0,0,0,0,0,0,0,0,0,-3.7757,-3.7762,-3.8008,-3.8009,-3.801,-3.8099,-3.8101,-3.8102,-3.8013,-3.8009,-3.8005,-3.8001,-3.8097,-3.8104,-3.8111,0,0,0,0,0,0,0,0,0,0,0,0,0,-3.7859,-3.7764,-3.8007,-3.7976,-3.7975,-3.8099,-3.8101,-3.8102,-3.8014,-3.8009,-3.8004,-3.7999,-3.8095,-3.8104,-3.8112,-3.8273,0,0,-3.8139,-3.8143,0,0,0,0,0,0,0,0,-3.7854,-3.7869,-3.798,-3.7979,-3.7977,-3.8039,-3.8048,-3.816,-3.8016,-3.7999,-3.8002,-3.7996,-3.8084,-3.8093,-3.8122,-3.8278,-3.8282,-3.814,-3.8145,-3.8149,-3.8152,0,0,0,0,0,0,0,-3.7847,-3.7864,-3.8044,-3.7982,-3.798,-3.7958,-3.7967,-3.8069,-3.807,-3.8,-3.7994,-3.8006,-3.8082,-3.8114,-3.8124,-3.8283,-3.814,-3.8148,-3.8153,-3.8157,-3.8573,-3.8579,0,0,0,0,0,0,-3.7843,-3.7859,-3.8041,-3.8047,-3.7901,-3.7967,-3.7977,-3.8025,-3.8069,-3.807,-3.801,-3.8001,-3.8101,-3.8114,-3.8127,-3.8316,-3.8149,-3.8157,-3.8163,-3.8568,-3.8575,-3.8581,0,0,0,0,0,0,-3.7838,-3.786,-3.8037,-3.7951,-3.7972,-3.7977,-3.8031,-3.8029,-3.8061,-3.8076,-3.8077,-3.8043,-3.8098,-3.8114,-3.8237,-3.8318,-3.8161,-3.8169,-3.8561,-3.857,-3.8578,-3.8697,0,0,0,0,0,0,-3.7831,-3.7858,-3.7919,-3.7953,-3.7977,-3.8146,-3.8037,-3.8035,-3.8076,-3.8065,-3.8107,-3.8108,-3.8095,-3.8224,-3.8246,-3.8328,-3.8176,-3.8554,-3.8565,-3.8575,-3.8686,-3.8709,-3.8728,0,0,0,0,0,-3.7822,-3.795,-3.7923,-3.7945,-3.8053,-3.815,-3.8164,-3.8145,-3.8083,-3.8144,-3.8154,-3.8107,-3.8306,-3.8237,-3.8261,-3.8347,-3.8548,-3.8562,-3.8574,-3.8676,-3.8704,-3.8728,0,0,0,0,0,0,-3.7927,-3.7954,-3.7924,-3.8067,-3.8107,-3.8135,-3.8212,-3.8176,-3.8235,-3.8222,-3.8197,-3.8207,-3.8336,-3.8354,-3.8277,-3.8504,-3.8417,-3.8436,-3.8487,-3.8514,-3.8535,-3.8527,-3.8184,0,0,0,0,0,-3.7966,-3.8043,-3.8063,-3.8187,-3.8208,-3.8207,-3.8249,-3.823,-3.8271,-3.8288,-3.8307,-3.8349,-3.842,-3.8468,-3.8536,-3.8689,-3.8696,-3.876,-3.8781,-3.8798,-3.8814,-3.8894,-3.8922,-3.8624,-3.8624,-3.8623,0,0,-3.8049,-3.8074,-3.8123,-3.8208,-3.8237,-3.8316,-3.8222,-3.831,-3.8369,-3.8302,-3.8417,-3.8433,-3.8478,-3.8616,-3.8678,-3.8635,-3.8898,-3.8815,-3.8828,-3.8835,-3.891,-3.8939,-3.8964,-3.8632,-3.8631,-3.8629,0,0,-3.824,-3.8267,-3.8372,-3.8402,-3.8447,-3.8445,-3.847,-3.8504,-3.8511,-3.8627,-3.8578,-3.8648,-3.8773,-3.8806,-3.884,-3.9043,-3.9001,-3.9066,-3.9176,-3.9255,-3.9278,-3.9299,-3.937,-3.9395,-3.9082,-3.9082,-3.9082,0,-3.8337,-3.8454,-3.8431,-3.8522,-3.8561,-3.8503,-3.8609,-3.864,-3.8705,-3.8733,-3.8684,-3.8838,-3.8865,-3.9008,-3.9058,-3.9088,-3.9115,-3.906,-3.9277,-3.9297,-3.9316,-3.9383,-3.941,-3.9089,-3.9089,-3.9088,-3.9087,0,-3.8571,-3.8653,-3.8732,-3.8794,-3.8842,-3.8941,-3.8933,-3.8984,-3.8962,-3.8965,-3.9083,-3.9113,-3.9184,-3.9218,-3.9198,-3.9359,-3.9331,-3.928,-3.9192,-3.9352,-3.9415,-3.944,-3.91,-3.9097,-3.9095,-3.9093,0,0,-3.8829,-3.8876,-3.8906,-3.8932,-3.8977,-3.904,-3.9136,-3.9205,-3.9248,-3.9296,-3.9374,-3.9481,-3.9434,-3.9472,-3.9456,-3.9525,-3.9682,-3.9466,-3.9466,-3.9503,-3.9859,-3.9895,-3.9925,-3.9655,-3.966,-3.9664,-3.9854,0,-3.9019,-3.9184,-3.9166,-3.9323,-3.9398,-3.9344,-3.9427,-3.9464,-3.947,-3.9534,-3.9541,-3.9616,-3.955,-3.9572,-3.9639,-3.9648,-3.9752,-3.9635,-3.9728,-3.9731,-3.9715,-3.9958,-3.9997,-4.0175,-3.9879,-3.9883,-3.9886,0,-3.9263,-3.9316,-3.9481,-3.9512,-3.9543,-3.9618,-3.9679,-3.9742,-3.9782,-3.9781,-3.9824,-3.9795,-3.9891,-3.9803,-3.9935,-3.9855,-3.9893,-3.9903,-3.991,-3.9916,-3.9817,-3.9969,-4.0231,-4.0257,-3.9924,-3.9921,-3.9919,0,-3.9432,-3.9546,-3.9658,-3.9683,-3.9724,-3.9777,-3.9797,-3.9832,-3.9874,-3.9927,-3.9954,-4.0019,-4.0054,-4.0105,-4.0094,-4.0031,-4.0229,-4.014,-4.023,-4.023,-4.0272,-4.0269,-4.0543,-4.0301,-4.03,-4.03,-4.0299,0,-3.9645,-3.9747,-3.9734,-3.9803,-3.9916,-3.9895,-4.0007,-4.002,-4.0052,-4.0122,-4.0081,-4.0148,-4.0131,-4.0198,-4.0191,-4.03,-4.0317,-4.0319,-4.0315,-4.0321,-4.032,-4.0343,-4.033,-4.0307,-4.0305,-4.0304,-4.0303,0,-3.9852,-3.9848,-3.9966,-3.9994,-4.0004,-4.0086,-4.011,-4.0175,-4.0177,-4.0267,-4.0287,-4.0292,-4.0368,-4.0363,-4.045,-4.0445,-4.0579,-4.0562,-4.0565,-4.056,-4.065,-4.064,-4.0945,-4.0983,-4.0719,-4.0722,-4.0724,0,-3.9987,-4.0064,-4.01,-4.0144,-4.0166,-4.0238,-4.028,-4.0262,-4.0307,-4.0358,-4.0417,-4.049,-4.0546,-4.0671,-4.0682,-4.0748,-4.0731,-4.0834,-4.0741,-4.0744,-4.073,-4.0725,-4.0731,-4.0851,-4.0854,-4.0857,-4.0859,0,-4.0227,-4.0221,-4.0282,-4.0343,-4.0394,-4.0441,-4.0484,-4.0523,-4.0509,-4.0563,-4.0639,-4.0683,-4.0771,-4.0843,-4.0906,-4.0926,-4.089,-4.0888,-4.0912,-4.0918,-4.0915,-4.0915,-4.0612,-4.0881,-4.0878,-4.0877,-4.0876,-4.0875,-4.0401,-4.0466,-4.05,-4.057,-4.06,-4.0641,-4.0703,-4.0713,-4.0776,-4.0845,-4.0831,-4.0917,-4.0955,-4.1035,-4.1061,-4.1129,-4.1092,-4.1127,-4.1136,-4.1144,-4.1153,-4.0906,-4.114,-4.114,-4.1139,-4.1139,-4.1138,0,-4.0636,-4.0655,-4.072,-4.078,-4.0835,-4.0796,-4.0841,-4.0889,-4.0965,-4.1003,-4.1059,-4.1147,-4.1216,-4.1233,-4.13,-4.135,-4.1335,-4.1368,-4.1363,-4.1368,-4.1183,-4.1155,-4.1379,-4.1379,-4.1379,-4.1379,-4.1379,-4.1378,-4.0764,-4.0872,-4.087,-4.0991,-4.101,-4.1093,-4.1122,-4.1159,-4.1189,-4.1288,-4.1345,-4.1355,-4.1384,-4.1452,-4.1514,-4.1517,-4.1543,-4.1582,-4.1579,-4.1405,-4.1381,-4.1358,-4.1331,-4.1588,-4.1589,-4.1757,-4.1758,-4.176]},{"header":{"parameterUnit":"m.s-1","parameterCategory":1,"la1":30.2991,"la2":30.254,"lo1":-89.0895,"lo2":-89.0444,"dy":0.0017,"dx":0.0017,"nx":28,"ny":28,"refTime":"2025-01-24T03:00:00:Z","depth":0,"parameterNumber":3,"parameterNumberName":"V-component_of_WINDS"},"data":[0,0,0,0,0,0,0,0,0,0,0,0,0,0,0,0,0,0,0,0,0,0,0,0,0,0,0,0,0,0,0,0,0,0,0,0,0,0,0,0,0,0,0,0,0,0,0,0,0,0,0,0,0,0,0,0,0,0,1.0471,1.0471,0,1.0485,1.0485,1.0485,1.0506,1.0506,1.0506,1.0507,1.0517,1.0517,1.0517,0,0,0,0,0,0,0,0,0,0,0,0,0,1.0458,1.0458,1.047,1.0471,1.0471,1.0485,1.0485,1.0485,1.0506,1.0506,1.0507,1.0507,1.0518,1.0517,1.0517,0,0,0,0,0,0,0,0,0,0,0,0,0,1.0467,1.0458,1.047,1.0483,1.0484,1.0485,1.0485,1.0485,1.0506,1.0506,1.0507,1.0507,1.0518,1.0517,1.0517,1.0506,0,0,1.0517,1.0517,0,0,0,0,0,0,0,0,1.0466,1.0467,1.0481,1.0482,1.0483,1.0494,1.0485,1.0492,1.0505,1.0497,1.0507,1.0507,1.0509,1.051,1.0511,1.0506,1.0507,1.0517,1.0517,1.0517,1.0517,0,0,0,0,0,0,0,1.0466,1.0467,1.0476,1.0481,1.0483,1.0487,1.0489,1.0486,1.05,1.0498,1.05,1.0501,1.051,1.0511,1.0511,1.0507,1.0517,1.0517,1.0517,1.0517,1.0494,1.0494,0,0,0,0,0,0,1.0464,1.0466,1.0476,1.0476,1.0476,1.0487,1.0489,1.049,1.05,1.0502,1.0501,1.0502,1.0511,1.0511,1.0512,1.0499,1.0517,1.0517,1.0517,1.0495,1.0494,1.0494,0,0,0,0,0,0,1.0463,1.0464,1.0475,1.0472,1.0474,1.0486,1.0488,1.049,1.0491,1.0502,1.0504,1.05,1.0511,1.0512,1.0508,1.05,1.0517,1.0517,1.0495,1.0495,1.0494,1.0474,0,0,0,0,0,0,1.0463,1.0464,1.046,1.0472,1.0474,1.0471,1.0487,1.049,1.0492,1.0494,1.0502,1.0503,1.0512,1.0508,1.0508,1.05,1.0517,1.0496,1.0495,1.0494,1.0476,1.0473,1.047,0,0,0,0,0,1.0463,1.0453,1.046,1.0461,1.0469,1.0471,1.0472,1.0483,1.0491,1.0487,1.0494,1.0503,1.0501,1.0507,1.0507,1.05,1.0497,1.0495,1.0494,1.0477,1.0473,1.047,0,0,0,0,0,0,1.0439,1.0455,1.0463,1.0457,1.0463,1.0474,1.0469,1.0479,1.0481,1.0483,1.0495,1.0497,1.0491,1.0495,1.0501,1.0489,1.05,1.0499,1.0487,1.0484,1.0481,1.048,1.0517,0,0,0,0,0,1.0433,1.0434,1.0448,1.0441,1.0444,1.0456,1.0457,1.0466,1.0471,1.0473,1.048,1.0484,1.0485,1.0485,1.0486,1.0477,1.0479,1.0472,1.0469,1.0467,1.0465,1.0461,1.0458,1.049,1.049,1.049,0,0,1.0421,1.043,1.0429,1.0437,1.0442,1.0442,1.0458,1.0457,1.0457,1.0473,1.047,1.0475,1.048,1.0474,1.0471,1.0477,1.0457,1.0465,1.0463,1.0463,1.046,1.0457,1.0454,1.0489,1.0489,1.0489,0,0,1.0399,1.0406,1.0402,1.0408,1.0416,1.0425,1.0424,1.0435,1.0439,1.0437,1.0449,1.0449,1.0449,1.0453,1.0455,1.0436,1.0444,1.0436,1.0422,1.0418,1.0416,1.0413,1.0407,1.0404,1.0434,1.0434,1.0434,0,1.0382,1.0384,1.0398,1.0397,1.04,1.0417,1.0412,1.0416,1.0424,1.0425,1.0432,1.0434,1.0439,1.0434,1.043,1.0431,1.0429,1.0434,1.0415,1.0413,1.0411,1.0405,1.0402,1.0433,1.0433,1.0434,1.0434,0,1.0363,1.0364,1.036,1.0369,1.0371,1.0368,1.0382,1.0382,1.0391,1.0398,1.0396,1.0403,1.0406,1.0405,1.0412,1.0401,1.0405,1.0413,1.0424,1.0407,1.0401,1.0399,1.0432,1.0432,1.0432,1.0433,0,0,1.0325,1.0344,1.0342,1.0347,1.0358,1.0359,1.0357,1.0361,1.0362,1.0367,1.0365,1.0366,1.0375,1.0377,1.0385,1.0382,1.0367,1.0391,1.0391,1.0386,1.0355,1.0348,1.0345,1.0373,1.0373,1.0372,1.0354,0,1.0305,1.0304,1.0317,1.0312,1.0313,1.033,1.0328,1.0334,1.0342,1.0343,1.0351,1.0352,1.0363,1.0364,1.0362,1.0369,1.0361,1.0371,1.0371,1.037,1.0368,1.0342,1.0335,1.0317,1.0352,1.0352,1.0352,0,1.0281,1.0287,1.0282,1.0295,1.0296,1.0295,1.0301,1.0302,1.031,1.0315,1.0319,1.0329,1.0327,1.0339,1.0337,1.0343,1.0344,1.0348,1.0347,1.0347,1.0359,1.0341,1.0312,1.0309,1.0348,1.0348,1.0349,0,1.0253,1.026,1.0259,1.0262,1.0278,1.0276,1.0282,1.0291,1.0293,1.0298,1.03,1.0303,1.0305,1.0308,1.0319,1.0326,1.0315,1.0327,1.0319,1.0319,1.0315,1.0315,1.0286,1.0317,1.0317,1.0317,1.0317,0,1.0229,1.0226,1.0247,1.0246,1.0242,1.0258,1.0254,1.0261,1.0269,1.0269,1.0283,1.0283,1.0298,1.0299,1.0307,1.0304,1.0305,1.0309,1.0311,1.0307,1.0307,1.0307,1.0309,1.0316,1.0316,1.0316,1.0316,0,1.0198,1.0212,1.0211,1.0227,1.023,1.0227,1.024,1.0239,1.0248,1.0248,1.0249,1.0263,1.0265,1.0277,1.0281,1.0287,1.028,1.0285,1.0278,1.0279,1.027,1.0271,1.024,1.0237,1.027,1.027,1.0269,0,1.0181,1.0179,1.0195,1.0197,1.0203,1.0206,1.0209,1.0224,1.0226,1.0236,1.0234,1.0238,1.0242,1.0244,1.0254,1.0257,1.0262,1.0251,1.0262,1.0259,1.0261,1.0261,1.0261,1.0248,1.0248,1.0247,1.0247,0,1.015,1.0158,1.0162,1.017,1.0174,1.018,1.0186,1.0187,1.0204,1.0206,1.0209,1.0212,1.0218,1.0221,1.0227,1.0232,1.0242,1.0244,1.0242,1.0238,1.0234,1.0236,1.0271,1.0244,1.0244,1.0244,1.0245,1.0245,1.0125,1.0124,1.0136,1.0141,1.0148,1.0155,1.0155,1.0166,1.0169,1.0176,1.0185,1.0187,1.0195,1.0204,1.0209,1.021,1.0216,1.0213,1.0213,1.0212,1.021,1.0234,1.0211,1.0211,1.0211,1.0211,1.0212,0,1.0095,1.0104,1.0108,1.0118,1.0122,1.0134,1.0142,1.0144,1.0147,1.0155,1.0159,1.0163,1.0167,1.0177,1.0182,1.0181,1.0186,1.0182,1.0181,1.0183,1.0204,1.0205,1.0178,1.0178,1.0178,1.0178,1.0178,1.0178,1.0079,1.0079,1.0088,1.0092,1.0101,1.0104,1.0108,1.0114,1.0121,1.0125,1.0129,1.0137,1.0146,1.0152,1.0155,1.0158,1.0159,1.0153,1.0158,1.0178,1.0181,1.0184,1.0185,1.0154,1.0154,1.0136,1.0136,1.0136]}]]